Wind_Speed
11 12 12 13 13 15 17 17 17 16 14 13 12 12 12 10 8 8 7 4 4 4 4 4 3 3 4 4 3 3 3 3 2 2 3 3 4 5 6 6 6 6 6 6 7 7 7 7 7
9 10 11 12 12 14 16 16 16 14 14 13 12 11 10 8 7 7 6 5 4 4 3 3 3 3 3 3 3 2 3 3 2 2 3 3 4 4 4 4 5 5 5 5 6 6 6 7 7
6 7 9 9 10 13 15 16 16 15 15 13 13 12 10 8 7 6 5 5 5 4 3 3 2 2 3 3 2 2 2 2 2 2 2 2 3 3 3 3 4 4 4 4 5 5 6 6 6
4 5 5 6 9 11 13 14 15 16 15 13 12 12 10 9 8 7 5 5 4 4 3 3 2 2 2 2 2 2 1 2 2 2 2 2 2 2 2 2 2 3 3 4 4 5 5 5 5
2 2 4 6 8 10 12 13 14 15 15 13 11 11 10 9 8 7 6 5 5 4 3 2 1 1 2 2 2 2 1 1 2 2 2 2 1 1 1 1 2 2 3 3 4 4 4 5 5
2 2 3 4 6 7 10 12 14 14 14 13 11 11 10 10 9 8 7 6 5 4 3 1 1 1 2 2 2 1 1 1 1 2 1 1 1 1 1 1 1 2 2 2 3 3 4 4 5
3 3 2 4 5 5 7 11 13 14 14 12 10 10 10 10 9 8 7 7 5 4 2 1 1 1 2 2 1 1 1 0 1 1 1 1 1 1 1 1 1 1 2 2 3 3 3 3 4
4 3 3 3 4 3 5 9 12 13 13 13 11 10 10 9 9 8 7 6 5 4 3 2 1 1 2 2 2 1 1 1 0 0 1 1 1 0 0 0 1 1 1 2 2 3 3 4 3
6 5 3 2 3 2 3 7 10 11 13 13 12 10 10 8 8 8 7 6 5 4 3 2 1 1 1 2 2 1 1 1 1 1 0 0 0 0 0 1 1 1 1 1 2 3 3 3 2
8 8 6 4 1 1 3 7 10 10 12 13 13 12 10 8 7 7 7 6 5 4 4 3 1 1 1 2 2 2 2 2 1 1 1 0 1 0 0 1 1 1 1 1 2 2 2 2 2
11 10 8 6 3 3 4 8 10 10 11 11 11 11 10 8 6 6 6 6 6 5 4 3 1 0 1 2 2 2 2 2 2 2 2 1 1 1 1 1 1 0 0 1 1 1 2 2 2
14 14 12 9 6 6 6 8 10 11 11 10 10 10 10 8 5 5 5 5 6 5 5 3 2 1 2 3 3 2 2 3 3 3 3 2 2 2 1 1 2 1 1 1 2 2 2 2 2
16 15 14 11 10 9 10 10 12 12 11 11 10 10 11 9 6 5 4 5 5 5 5 4 3 2 2 3 3 3 3 3 3 4 4 3 3 2 2 2 2 2 1 1 1 2 2 2 2
16 16 14 13 11 11 12 11 12 12 11 10 10 10 10 10 8 6 5 4 5 4 4 4 3 2 2 3 4 4 4 4 5 5 4 4 4 4 3 3 2 2 2 2 2 2 2 2 2
17 16 14 13 11 11 12 12 11 12 12 11 11 10 10 9 8 7 6 4 4 4 4 4 3 2 2 3 4 4 5 5 6 6 6 6 5 4 4 4 3 3 3 2 2 3 3 3 2
18 16 14 13 12 11 12 12 12 12 13 12 11 11 11 9 9 8 6 5 5 4 4 4 3 3 3 2 3 4 5 6 6 7 7 7 6 6 5 5 5 5 4 3 3 3 3 3 3
19 17 15 14 12 13 13 12 11 13 14 13 13 12 10 9 9 8 6 5 5 4 4 4 3 4 4 3 3 4 4 5 6 7 7 8 8 7 7 6 6 5 5 4 4 4 4 4 3
19 19 18 16 14 14 13 12 12 14 14 13 13 12 10 10 10 9 7 6 5 5 4 4 4 4 4 4 3 4 4 5 6 7 8 7 8 8 8 7 7 7 7 6 6 6 5 5 5
22 22 21 18 15 14 14 14 14 15 15 14 13 12 12 12 11 10 9 8 7 6 5 4 4 5 5 5 5 5 5 6 6 7 8 8 9 10 10 9 9 8 8 8 8 7 6 6 6
25 24 22 20 16 15 15 16 17 16 15 15 15 13 13 12 12 11 10 9 8 6 5 5 6 6 5 6 6 6 6 6 6 6 8 9 9 10 11 11 11 10 10 10 10 9 9 8 8
26 25 23 20 18 18 18 18 18 17 16 16 15 14 13 12 11 11 11 11 10 7 6 6 7 7 7 7 8 7 7 7 7 7 8 9 9 10 10 11 12 12 11 11 12 12 11 11 10
26 25 25 23 22 22 22 21 19 19 18 17 16 15 14 12 13 12 12 13 12 10 8 7 7 8 8 8 8 8 8 8 7 7 8 9 10 11 11 10 12 12 13 13 13 13 13 13 12
25 26 27 26 25 24 23 23 20 20 20 18 17 16 16 13 14 14 13 13 12 11 9 9 9 9 9 9 9 9 9 8 8 8 9 9 10 11 11 11 11 13 13 13 14 15 15 14 13
26 27 28 28 27 26 24 24 21 20 20 19 18 18 16 16 16 15 14 14 13 11 10 10 9 10 10 10 9 9 9 9 9 9 9 10 10 11 12 12 13 13 14 13 14 15 15 16 15
29 29 29 30 29 26 23 26 22 19 20 19 18 18 18 17 16 15 14 14 13 12 11 11 11 11 11 11 10 9 10 9 10 11 10 10 11 11 11 13 13 14 14 14 15 15 16 17 17
29 29 28 28 26 23 23 25 21 19 19 19 17 17 17 16 15 14 14 13 13 12 12 12 12 12 12 12 12 11 10 10 10 11 11 10 11 12 12 13 13 14 14 14 15 16 17 18 18
29 28 26 27 26 25 24 22 19 18 18 17 16 16 15 14 14 12 13 13 13 13 13 12 12 12 11 11 12 11 10 10 11 11 11 11 12 13 14 14 14 14 15 16 16 17 18 18 18
28 26 28 28 27 26 23 21 18 17 16 16 15 15 15 14 13 13 12 11 13 13 12 12 12 11 12 12 12 12 11 10 10 11 12 12 13 13 14 15 15 15 16 16 16 17 18 18 19
28 28 29 28 28 27 24 21 19 17 16 14 13 15 15 15 14 12 11 11 12 12 12 11 12 12 12 12 13 12 12 11 11 11 13 14 14 14 15 15 16 16 16 16 17 18 19 19 19
26 27 28 29 28 26 25 21 20 18 15 14 13 13 13 14 14 13 11 10 12 12 11 11 12 12 12 13 13 12 12 12 12 12 13 14 14 15 16 16 16 16 17 17 17 18 19 19 20
Wind_Direction
91 89 78 71 62 57 52 47 39 39 41 42 38 37 37 41 45 52 52 60 88 104 104 103 114 117 112 102 88 76 60 57 72 93 94 99 102 103 104 102 100 100 100 101 104 105 104 102 102
95 93 85 73 58 51 51 46 35 34 40 43 41 40 39 41 44 52 50 53 72 85 92 101 122 130 124 114 98 86 65 57 67 80 85 89 95 100 102 99 98 97 97 100 102 102 101 101 100
101 95 90 78 64 51 47 40 29 28 34 38 41 39 37 41 46 51 51 53 65 80 91 102 122 130 136 130 111 86 63 46 35 44 53 77 84 94 101 99 100 97 97 99 102 100 100 100 97
104 95 96 82 70 56 44 33 25 19 21 25 34 37 38 39 44 45 48 54 68 79 90 104 120 135 136 136 122 100 74 51 39 31 42 63 74 89 95 102 96 94 98 99 99 98 100 100 97
83 82 108 88 80 54 38 23 17 11 12 16 24 31 34 34 37 41 46 55 69 80 95 105 122 142 151 151 133 115 97 66 44 36 43 50 45 50 73 101 99 100 101 100 100 100 102 102 98
94 131 108 90 82 57 35 12 7 2 5 7 17 27 29 30 32 37 46 57 65 75 86 88 140 148 158 158 148 136 128 71 47 41 44 48 35 32 58 110 112 102 103 109 105 110 109 104 103
134 133 94 82 80 66 28 3 356 353 358 4 14 24 32 35 33 36 46 57 62 62 68 70 132 179 178 168 168 154 147 135 40 16 20 26 34 35 64 116 131 110 95 102 107 112 108 109 108
174 169 138 93 88 64 14 348 344 349 351 354 6 18 34 40 36 34 42 50 53 56 60 56 94 161 182 183 183 175 158 152 306 323 12 26 21 322 305 129 159 146 129 111 107 109 108 114 114
194 194 191 135 112 56 337 327 333 341 347 354 359 6 20 35 39 34 36 38 44 47 47 48 98 166 191 192 190 205 218 236 246 245 227 8 317 308 248 213 207 202 165 124 116 113 112 118 119
204 203 203 206 179 23 308 313 321 331 339 349 356 1 5 21 35 36 35 30 31 33 32 30 45 193 199 199 213 232 239 236 231 223 225 270 272 258 238 233 231 219 196 146 139 131 131 117 117
211 209 213 222 237 252 271 292 296 315 328 340 354 358 0 10 24 32 33 27 22 19 20 26 28 220 218 216 216 231 235 233 232 227 235 248 241 228 225 216 211 221 143 148 162 152 138 130 132
216 215 218 223 226 238 256 273 282 297 317 332 346 352 354 358 8 21 31 26 19 14 10 10 1 304 252 245 231 227 224 229 232 233 236 241 229 222 227 209 200 208 205 183 174 168 154 136 136
219 221 219 225 235 244 254 266 278 288 300 314 332 345 345 347 349 0 17 20 19 19 12 4 351 334 293 265 236 229 223 219 227 239 248 243 232 232 227 209 205 217 216 172 159 178 164 144 134
224 226 225 226 233 245 252 261 272 281 284 299 317 329 333 339 342 345 1 9 14 19 20 15 4 341 291 264 250 238 234 225 223 230 238 237 238 240 233 225 206 211 208 199 198 191 186 181 184
225 226 225 226 233 243 254 257 265 273 279 290 303 317 323 327 334 336 344 357 2 9 13 12 5 342 301 260 250 236 230 230 229 233 233 232 232 238 235 229 224 222 221 215 211 200 209 209 214
225 223 220 223 231 240 248 256 264 271 280 286 295 306 315 319 323 327 337 347 350 351 357 355 347 333 318 285 255 242 233 236 234 233 232 233 232 234 233 229 233 236 230 225 220 213 219 216 218
225 220 218 222 232 240 248 257 265 271 281 285 291 299 307 310 316 320 323 331 334 336 343 349 338 338 331 305 269 257 248 249 244 236 236 240 238 234 229 225 228 235 235 234 228 222 226 227 225
226 221 219 221 227 235 245 255 262 270 278 282 288 290 295 302 307 305 307 309 312 316 327 333 322 321 323 309 291 266 255 249 251 248 243 243 240 239 232 228 228 231 235 238 234 229 231 233 231
225 223 220 220 224 233 244 253 261 268 276 281 290 289 294 297 298 297 298 298 297 299 306 306 306 309 310 303 295 279 265 257 252 246 244 238 235 237 237 235 232 234 237 239 237 233 233 233 232
224 224 222 221 225 234 246 254 258 265 272 279 286 287 289 290 290 295 300 298 295 293 289 293 290 291 295 295 295 285 270 263 254 248 247 245 238 236 235 235 235 238 241 243 239 237 236 236 234
223 223 223 223 226 236 246 250 254 259 266 269 275 280 283 285 286 291 291 289 285 278 279 280 277 282 289 290 288 290 279 271 257 249 249 249 242 239 234 234 236 241 245 246 244 241 239 238 237
224 222 222 223 226 232 240 248 252 256 260 263 272 278 278 281 280 284 284 281 279 272 273 278 270 277 287 287 285 286 288 280 261 252 247 247 248 247 240 241 243 245 244 247 248 244 241 241 241
223 220 222 224 228 231 236 245 245 251 255 262 267 275 277 278 280 281 280 278 274 271 271 279 270 274 283 285 282 282 282 274 266 256 252 249 248 247 245 245 247 250 249 250 247 244 243 243 243
221 219 222 225 229 231 236 245 247 247 254 259 265 270 279 279 279 274 274 275 272 267 263 269 270 273 280 282 284 281 280 273 268 265 259 248 247 249 249 248 251 253 254 254 251 246 245 247 247
219 219 222 226 229 232 234 242 246 244 249 257 265 268 273 277 275 272 267 266 264 260 261 266 267 270 277 282 286 283 281 274 269 267 262 252 250 250 252 252 252 253 255 256 255 251 248 250 251
222 222 224 228 230 230 232 240 244 243 246 251 260 265 269 272 275 274 267 261 256 257 259 261 267 270 275 282 287 283 277 273 268 262 258 254 253 253 254 254 254 256 255 256 254 255 253 253 253
220 222 224 227 228 229 231 239 242 239 241 246 256 260 263 269 274 273 266 262 254 255 257 261 266 271 276 283 284 281 274 270 264 260 256 254 257 256 254 253 254 258 260 258 255 253 254 254 254
218 217 219 222 224 228 231 236 240 242 242 243 252 260 261 262 263 267 264 260 253 249 252 258 264 270 275 279 279 275 274 271 266 259 256 255 259 256 254 255 259 262 266 262 256 253 253 254 255
212 213 217 221 223 226 228 234 239 244 247 251 256 257 257 260 265 264 262 264 258 258 255 258 263 268 271 275 278 275 270 267 267 262 260 259 257 255 258 262 263 263 264 261 256 255 254 255 256
213 216 218 221 222 225 228 233 237 241 250 254 260 263 260 262 264 263 261 263 257 257 256 261 265 270 273 275 276 272 271 269 268 266 267 262 258 259 262 265 265 263 264 264 263 263 261 259 257
Height
5907 5906 5906 5906 5906 5905 5903 5903 5902 5902 5902 5901 5900 5900 5900 5900 5899 5901 5899 5897 5897 5897 5897 5898 5898 5898 5899 5900 5900 5901 5901 5902 5902 5902 5902 5902 5902 5902 5902 5902 5902 5902 5901 5901 5901 5901 5901 5900 5900
5907 5907 5908 5908 5907 5906 5905 5904 5904 5904 5903 5903 5902 5902 5901 5900 5899 5899 5898 5897 5897 5898 5898 5899 5899 5899 5900 5901 5901 5902 5902 5903 5903 5903 5904 5904 5904 5903 5903 5903 5903 5903 5903 5902 5902 5902 5902 5902 5901
5909 5908 5909 5909 5907 5906 5906 5905 5905 5904 5903 5904 5904 5903 5902 5901 5900 5899 5899 5898 5898 5898 5899 5899 5900 5900 5901 5901 5902 5903 5904 5904 5905 5905 5905 5905 5905 5905 5904 5904 5904 5904 5904 5903 5903 5903 5903 5903 5903
5910 5910 5910 5910 5908 5907 5906 5906 5905 5906 5906 5906 5905 5904 5903 5902 5900 5900 5899 5898 5898 5899 5900 5900 5900 5901 5902 5902 5903 5904 5905 5905 5906 5906 5906 5906 5906 5906 5905 5905 5905 5905 5904 5904 5904 5904 5904 5904 5904
5911 5910 5910 5909 5908 5907 5907 5906 5906 5907 5907 5907 5906 5905 5904 5902 5900 5900 5899 5899 5899 5900 5900 5901 5901 5901 5902 5903 5903 5904 5905 5906 5906 5907 5907 5907 5907 5907 5906 5906 5906 5906 5905 5905 5905 5905 5905 5905 5904
5911 5911 5910 5909 5908 5907 5907 5908 5908 5909 5908 5908 5907 5906 5904 5903 5901 5900 5900 5900 5900 5900 5901 5901 5901 5902 5903 5903 5904 5905 5906 5906 5907 5907 5907 5907 5907 5907 5907 5907 5907 5906 5906 5906 5906 5906 5906 5906 5905
5912 5911 5910 5910 5909 5908 5908 5909 5909 5910 5909 5908 5907 5906 5905 5904 5902 5901 5901 5900 5900 5901 5901 5902 5902 5902 5903 5904 5905 5905 5906 5906 5907 5907 5908 5908 5908 5908 5907 5907 5907 5907 5907 5907 5907 5907 5907 5907 5906
5911 5912 5910 5910 5909 5910 5909 5909 5909 5910 5909 5908 5907 5907 5906 5905 5903 5902 5901 5901 5901 5901 5901 5902 5902 5902 5903 5904 5905 5906 5906 5907 5907 5908 5908 5908 5908 5908 5908 5908 5907 5907 5907 5907 5907 5907 5907 5907 5907
5911 5912 5910 5910 5909 5910 5909 5909 5909 5910 5910 5908 5908 5907 5907 5905 5904 5903 5902 5902 5902 5902 5902 5902 5902 5903 5903 5904 5905 5905 5906 5906 5907 5908 5908 5908 5908 5908 5908 5908 5908 5907 5907 5907 5908 5908 5908 5908 5908
5911 5911 5910 5910 5909 5909 5909 5908 5909 5909 5909 5908 5908 5907 5906 5906 5905 5904 5903 5903 5902 5902 5902 5902 5902 5902 5903 5903 5904 5905 5906 5906 5907 5907 5908 5908 5908 5908 5908 5908 5908 5908 5908 5908 5908 5908 5908 5908 5908
5909 5910 5909 5909 5908 5908 5909 5909 5908 5908 5908 5909 5908 5907 5907 5906 5905 5905 5904 5903 5903 5902 5902 5902 5902 5902 5902 5903 5903 5904 5905 5906 5906 5907 5907 5907 5907 5908 5908 5908 5908 5908 5908 5908 5908 5908 5909 5909 5909
5908 5908 5908 5908 5908 5908 5908 5908 5908 5908 5909 5909 5908 5908 5907 5906 5906 5905 5905 5904 5903 5902 5901 5901 5901 5901 5902 5902 5903 5903 5904 5905 5905 5906 5906 5907 5907 5907 5907 5908 5908 5908 5908 5908 5908 5908 5909 5909 5909
5905 5906 5906 5906 5907 5907 5908 5908 5907 5908 5908 5908 5908 5907 5907 5906 5906 5905 5905 5904 5903 5902 5901 5901 5901 5901 5901 5902 5902 5902 5903 5904 5904 5905 5906 5906 5906 5907 5907 5907 5908 5908 5908 5908 5908 5908 5909 5909 5909
5903 5903 5904 5905 5905 5906 5906 5907 5907 5907 5907 5907 5907 5907 5906 5906 5905 5905 5904 5904 5903 5902 5902 5901 5901 5901 5901 5901 5901 5902 5902 5903 5903 5904 5905 5905 5906 5906 5907 5907 5907 5907 5908 5908 5908 5908 5908 5909 5909
5900 5902 5903 5903 5904 5904 5905 5906 5905 5905 5906 5906 5906 5906 5906 5905 5905 5904 5903 5903 5903 5902 5902 5901 5901 5900 5900 5900 5900 5901 5901 5901 5902 5903 5903 5904 5905 5905 5906 5906 5906 5907 5907 5907 5908 5908 5908 5909 5909
5897 5899 5901 5902 5902 5903 5904 5904 5904 5903 5904 5905 5905 5905 5904 5904 5904 5903 5902 5902 5901 5901 5901 5900 5899 5899 5899 5899 5899 5899 5900 5900 5900 5901 5902 5902 5903 5903 5904 5905 5905 5906 5906 5907 5907 5908 5908 5908 5908
5894 5896 5898 5899 5899 5900 5901 5901 5902 5901 5902 5902 5902 5903 5902 5902 5902 5902 5901 5900 5900 5900 5899 5898 5898 5898 5897 5897 5898 5897 5898 5898 5898 5899 5900 5900 5901 5902 5902 5903 5904 5905 5905 5906 5907 5907 5908 5908 5908
5891 5893 5894 5896 5896 5897 5897 5898 5899 5899 5899 5900 5900 5900 5901 5901 5901 5900 5900 5899 5899 5898 5898 5897 5897 5897 5896 5896 5896 5896 5896 5896 5896 5897 5897 5898 5899 5900 5900 5901 5902 5903 5904 5905 5905 5906 5906 5907 5907
5885 5888 5890 5892 5892 5893 5894 5895 5896 5896 5896 5897 5898 5898 5899 5899 5899 5899 5898 5897 5896 5896 5896 5896 5896 5895 5895 5895 5894 5894 5894 5894 5894 5895 5895 5896 5897 5898 5899 5900 5901 5901 5902 5903 5904 5904 5905 5906 5906
5880 5883 5886 5888 5888 5889 5891 5892 5892 5892 5893 5894 5895 5896 5896 5897 5897 5897 5896 5896 5895 5895 5895 5894 5894 5894 5893 5893 5892 5892 5892 5892 5892 5892 5893 5894 5895 5895 5896 5897 5898 5899 5900 5901 5902 5902 5903 5904 5905
5875 5879 5882 5883 5884 5886 5887 5889 5889 5890 5890 5891 5892 5893 5894 5895 5895 5895 5894 5894 5894 5893 5893 5892 5892 5892 5891 5891 5890 5890 5890 5890 5890 5890 5890 5891 5892 5893 5894 5895 5896 5896 5897 5898 5899 5900 5901 5902 5903
5871 5875 5877 5879 5880 5881 5884 5885 5886 5886 5887 5888 5889 5890 5891 5892 5892 5892 5892 5892 5891 5891 5890 5890 5889 5889 5889 5888 5888 5888 5887 5887 5887 5888 5888 5889 5889 5890 5891 5892 5893 5894 5895 5895 5896 5897 5898 5899 5900
5867 5870 5872 5874 5875 5877 5879 5880 5883 5883 5884 5885 5886 5887 5888 5889 5890 5889 5889 5889 5888 5887 5887 5887 5887 5887 5887 5886 5886 5885 5885 5884 5884 5885 5885 5886 5887 5887 5888 5889 5890 5891 5892 5892 5893 5894 5895 5896 5897
5861 5864 5866 5868 5870 5873 5876 5876 5878 5879 5880 5882 5883 5883 5884 5885 5886 5886 5886 5886 5885 5885 5884 5884 5884 5884 5884 5884 5883 5882 5882 5882 5882 5882 5882 5883 5884 5884 5885 5886 5887 5888 5888 5889 5890 5891 5892 5893 5894
5854 5858 5861 5863 5865 5868 5872 5871 5874 5876 5877 5877 5878 5880 5881 5881 5882 5882 5882 5882 5882 5881 5881 5882 5882 5881 5881 5880 5879 5879 5879 5879 5879 5879 5879 5880 5881 5881 5882 5883 5883 5884 5885 5885 5886 5887 5888 5889 5890
5849 5853 5856 5859 5862 5865 5866 5867 5871 5872 5873 5874 5875 5876 5877 5877 5877 5877 5878 5878 5878 5878 5878 5878 5878 5878 5877 5877 5876 5875 5875 5876 5876 5876 5876 5877 5877 5878 5878 5879 5880 5881 5881 5881 5882 5883 5884 5885 5886
5844 5847 5852 5855 5857 5859 5861 5863 5866 5867 5869 5870 5871 5872 5872 5873 5873 5874 5874 5874 5874 5875 5875 5875 5875 5874 5874 5873 5872 5872 5872 5872 5873 5873 5873 5874 5874 5875 5875 5876 5876 5877 5877 5877 5878 5878 5879 5880 5881
5839 5843 5846 5848 5851 5853 5857 5859 5861 5863 5865 5866 5867 5868 5868 5869 5870 5870 5870 5870 5870 5870 5869 5870 5871 5871 5871 5870 5869 5869 5869 5869 5869 5869 5870 5870 5871 5871 5872 5872 5872 5873 5873 5873 5873 5874 5874 5876 5876
5834 5837 5840 5844 5846 5849 5852 5857 5857 5859 5861 5862 5864 5864 5865 5865 5866 5867 5866 5866 5866 5866 5866 5867 5867 5867 5867 5866 5866 5865 5866 5866 5866 5866 5867 5867 5867 5868 5868 5869 5869 5869 5869 5868 5868 5869 5870 5870 5871
5828 5832 5836 5839 5842 5845 5848 5854 5853 5855 5857 5859 5859 5860 5861 5862 5862 5862 5862 5863 5863 5863 5863 5863 5864 5864 5864 5863 5862 5862 5862 5862 5863 5863 5863 5863 5863 5864 5864 5864 5864 5864 5864 5864 5864 5864 5865 5865 5866